Location: Lake Crest
(37.6062°N, 88.9176°W)
Time: 15:35:29
(UTC+00:00)

USA 267 - Pass Details

Date: 15 December 2019
Orbit: 1100 x 1107 km, 123.0° (Epoch: 17 January)

Event Time Altitude Azimuth Distance (km) Brightness Sun altitude
Exits shadow 01:34:25 18° 178° (S) 2,425 5.0 -34.0°
Maximum altitude 01:38:39 36° 234° (SW) 1,673 4.5 -34.9°
Drops below altitude 10° 01:44:34 10° 298° (WNW) 2,958 6.1 -36.0°
Sets 01:47:18 0° 307° (NW) 3,919 6.8 -36.6°
